GEFSMW_500_meanwind_120.txt.gz
Wind_Speed
17 16 15 14 14 14 13 12 10 8 7 7 9 11 13 14 14 14 14 13 13 12 11 10 9 9 8 8 7 6 6 5 4 4 3 3 3 2 2 2 2 2 2
17 16 15 14 14 13 12 12 11 9 7 7 7 9 11 14 14 14 13 14 14 13 12 11 10 10 9 9 8 8 7 6 6 5 5 4 3 3 3 3 3 3 2
16 14 14 14 13 13 13 13 11 9 7 6 6 8 10 13 15 14 14 14 15 15 14 13 11 11 10 10 10 9 9 8 7 7 6 5 5 4 4 4 4 4 4
15 13 14 14 13 14 13 13 11 8 7 6 6 7 9 10 13 14 14 15 15 14 14 14 13 12 12 11 11 11 10 9 9 9 8 7 7 6 6 6 6 5 5
15 15 14 14 13 13 13 13 11 9 7 6 6 7 8 9 11 13 14 15 15 14 14 15 15 14 13 13 13 12 12 11 11 10 10 10 9 9 9 9 8 8 8
15 14 14 14 13 13 13 12 11 8 6 6 6 7 8 8 9 11 13 14 14 15 15 15 16 15 15 14 14 14 13 13 12 12 12 12 11 11 11 11 11 11 11
16 15 14 14 13 13 12 12 11 8 7 6 5 6 7 8 9 10 12 13 14 15 15 16 17 17 16 16 16 15 14 14 14 14 14 13 13 14 14 14 14 14 15
16 15 14 14 13 12 12 12 10 8 6 5 6 6 6 7 9 11 12 13 14 15 16 16 17 17 18 17 17 16 16 16 16 16 16 16 16 17 16 17 17 17 18
16 14 13 13 12 11 11 11 9 7 6 6 6 7 8 9 9 11 12 13 14 15 16 16 17 17 18 18 18 18 18 18 18 18 18 18 19 19 19 19 20 21 21
15 14 14 12 12 12 11 10 9 8 7 7 7 9 9 10 11 11 12 13 14 15 16 17 17 18 19 19 19 19 19 20 20 20 20 20 20 21 22 22 23 23 23
16 15 14 14 13 13 12 11 10 9 8 8 8 8 9 10 12 13 13 14 15 16 17 18 18 18 19 19 19 20 20 21 21 21 22 22 22 21 21 22 24 25 25
17 16 15 14 14 14 13 12 11 11 10 9 10 9 10 10 11 12 13 14 15 16 17 18 19 19 19 19 19 20 20 21 21 22 23 23 23 23 24 24 25 26 27
18 17 17 16 14 14 13 13 12 12 11 11 11 11 11 11 12 12 14 15 15 16 16 17 19 19 19 19 19 20 20 21 22 22 23 24 24 25 26 26 27 27 28
18 18 18 17 16 14 14 14 14 13 13 13 13 13 13 13 13 14 14 15 16 16 17 18 18 19 20 20 21 22 22 22 23 24 25 25 26 27 27 28 28 28 28
20 19 18 17 17 17 15 15 15 14 14 14 15 14 15 15 15 15 15 15 15 16 16 18 19 20 21 21 22 22 22 23 23 25 26 27 28 29 30 30 30 30 30
22 21 20 19 19 19 18 17 17 17 17 16 16 16 16 16 16 16 17 17 16 17 17 18 19 20 20 21 22 23 24 24 24 26 27 28 29 30 29 29 30 30 31
24 23 23 22 20 20 20 19 19 19 18 18 17 17 16 17 18 18 18 19 19 19 19 19 20 21 21 23 23 23 23 24 25 27 28 28 28 28 29 29 30 30 31
25 25 24 23 22 21 21 21 21 20 20 20 20 19 19 19 19 19 20 20 20 21 21 21 21 22 22 22 23 24 25 26 27 28 28 28 27 27 29 30 30 31 32
26 26 26 25 24 23 22 22 22 22 22 22 22 22 21 21 20 20 20 21 21 22 22 22 22 22 23 24 24 26 26 27 27 27 28 28 28 29 29 31 31 32 33
28 27 26 26 25 25 24 24 24 24 24 24 23 23 22 22 21 21 21 21 22 23 23 23 23 23 24 24 26 26 26 27 27 28 28 29 30 30 30 31 32 34 35
28 27 27 27 26 26 26 25 25 25 25 24 24 24 23 23 23 23 22 22 22 22 22 22 23 24 24 25 26 26 26 27 27 28 28 29 30 31 32 33 34 35 36
29 29 29 28 28 27 27 27 26 26 26 26 26 26 25 24 24 23 22 22 22 22 23 23 24 24 25 25 26 26 26 26 27 28 29 30 31 32 33 34 35 36 37
31 31 30 30 29 29 29 29 29 28 28 27 27 27 26 25 24 24 24 24 24 24 24 24 25 25 25 25 26 26 26 27 27 28 29 30 31 32 34 34 35 36 37
34 33 32 32 32 31 31 30 30 30 29 29 28 27 26 26 26 26 26 25 25 25 25 25 26 26 26 27 27 27 26 27 28 30 31 31 32 33 34 35 35 35 36
35 35 34 34 34 33 33 32 31 31 30 30 29 28 27 27 27 27 27 27 26 26 26 26 27 27 27 27 27 27 28 29 30 30 30 32 32 33 33 33 33 34 35
37 36 35 35 35 34 33 33 32 31 31 31 30 29 29 28 28 28 28 27 27 26 27 27 27 27 27 27 26 27 28 29 30 30 30 30 31 31 31 31 32 34 35

GEFSMW_500_meanwind_126.txt.gz
Wind_Speed
16 15 13 11 11 11 10 10 9 7 5 4 4 6 8 12 13 13 14 14 12 11 9 8 7 7 7 7 6 6 6 5 5 5 5 5 4 4 3 4 4 3 3
16 15 13 11 10 10 10 10 9 7 5 4 3 5 7 10 11 13 14 14 13 12 11 9 9 8 8 8 7 7 7 7 7 7 6 6 6 6 5 5 5 5 4
15 14 13 12 10 10 10 10 8 7 6 5 2 4 7 9 10 12 14 14 13 13 11 10 10 9 9 9 9 9 9 9 9 8 8 7 7 7 6 6 6 5 6
15 14 13 12 10 9 9 10 9 7 6 4 3 3 7 9 10 12 13 13 13 12 12 11 11 10 11 10 10 10 10 10 10 10 9 9 9 8 8 8 8 8 8
15 14 13 12 10 9 9 10 9 7 6 5 4 5 7 9 10 10 11 12 12 12 13 12 12 12 12 12 11 11 11 11 11 11 11 11 10 10 9 9 9 9 10
15 14 13 12 11 10 10 10 8 7 6 5 4 5 6 8 9 9 10 11 12 13 13 13 13 13 13 13 12 11 12 12 12 12 12 12 12 11 11 11 11 11 11
15 15 13 11 11 10 9 8 8 7 6 5 4 5 6 8 9 9 9 11 11 12 12 13 13 13 14 14 13 13 13 13 13 13 13 13 13 14 14 13 13 13 13
14 14 12 10 10 10 9 8 7 7 5 4 3 4 5 7 8 9 9 10 11 12 12 13 14 14 14 14 14 14 14 15 15 14 14 15 15 15 15 15 16 16 15
13 12 11 9 10 9 9 8 7 6 5 4 3 5 5 6 7 8 9 10 11 12 13 13 13 13 14 15 15 16 16 16 16 16 16 16 16 16 16 16 17 17 18
14 11 9 8 9 9 9 9 8 7 5 4 3 5 6 7 8 9 10 10 11 12 13 14 15 14 14 15 16 16 17 17 17 18 18 17 17 17 18 18 18 19 20
15 12 9 8 9 9 9 10 9 8 6 5 4 5 6 7 8 8 9 10 12 13 13 14 16 16 17 16 16 16 16 17 19 19 19 19 19 19 20 20 20 20 21
13 13 10 10 9 9 9 9 9 8 7 6 6 6 6 7 8 9 10 11 12 13 14 15 15 16 17 17 17 17 17 18 19 19 19 20 20 20 21 22 22 22 23
14 13 12 11 10 10 10 10 9 9 8 7 7 7 8 8 9 9 10 11 12 12 13 14 14 15 16 17 17 18 19 19 20 21 21 21 21 22 23 23 23 23 24
15 14 13 12 11 12 11 10 10 10 9 8 8 9 9 9 10 10 11 11 12 12 13 14 15 16 16 18 18 19 18 19 20 22 22 23 23 23 25 25 24 25 26
18 16 15 14 14 13 13 12 11 11 10 10 10 10 10 10 10 11 12 13 13 14 15 16 16 16 17 18 19 20 20 21 22 23 23 24 24 24 25 25 26 26 27
21 18 16 16 16 15 14 14 13 13 12 12 12 11 11 11 12 12 13 14 14 15 15 16 17 17 18 19 20 20 20 21 21 21 22 23 24 24 24 25 26 27 27
23 22 18 17 16 16 15 15 14 14 14 14 14 13 13 13 13 14 14 14 15 16 17 17 17 18 19 19 19 20 21 21 21 21 22 23 24 25 26 26 26 26 27
24 22 20 19 17 17 17 16 15 15 15 15 15 15 15 15 15 16 15 15 16 18 19 19 19 19 20 20 21 22 22 23 23 23 23 23 24 25 25 26 27 27 27
25 23 22 21 19 19 18 18 17 17 16 16 16 16 16 17 17 17 16 17 17 18 19 19 20 21 21 22 22 23 23 23 23 24 24 23 24 25 25 26 26 27 27
27 26 24 22 21 21 21 20 19 18 18 18 17 17 17 18 18 19 18 18 18 19 19 20 21 21 21 21 22 23 23 23 23 24 24 24 24 25 25 25 27 27 28
28 27 26 24 22 22 22 21 21 20 20 19 19 19 19 19 19 19 19 19 20 20 20 21 21 21 22 22 22 23 23 23 24 24 24 24 25 25 25 26 27 28 28
29 28 27 25 24 24 24 24 23 22 22 22 21 22 21 21 21 21 21 20 21 21 21 21 21 22 22 22 22 22 22 22 23 23 24 24 25 26 27 28 28 29 30
31 31 29 28 28 27 26 25 25 25 25 24 24 24 23 23 23 22 22 22 23 23 22 23 23 23 23 23 22 22 22 23 24 24 25 26 27 28 28 29 29 30 30
33 33 32 32 31 30 29 28 27 27 27 27 26 25 25 24 24 23 23 24 24 24 23 23 23 23 23 23 24 24 24 24 25 25 26 27 28 28 29 30 30 30 31
36 35 34 33 33 31 30 30 29 29 30 29 28 27 27 26 26 25 25 25 25 25 25 25 25 25 25 25 25 24 24 24 25 26 26 27 28 28 29 29 30 31 32
37 35 34 34 33 33 32 32 31 32 31 31 30 29 28 28 27 27 27 27 27 27 26 26 26 26 25 25 24 24 24 24 25 26 26 27 27 28 28 28 29 30 31

GEFSMW_500_meanwind_132.txt.gz
Wind_Speed
15 14 12 10 10 10 9 9 8 6 4 4 5 6 9 10 11 12 14 14 13 13 11 11 10 9 8 7 7 6 6 5 5 5 5 5 5 5 5 4 5 5 5
15 14 13 11 10 10 9 10 8 7 4 3 5 6 8 10 11 11 13 14 14 14 13 12 11 10 9 8 8 8 7 7 7 7 7 6 6 6 6 6 6 6 7
14 14 13 11 10 10 9 9 8 7 5 4 4 5 7 10 12 12 14 14 14 14 14 13 12 11 10 10 9 9 9 9 8 8 8 8 8 8 8 8 8 8 8
14 14 13 11 10 9 9 9 8 7 6 5 4 5 7 9 11 13 14 14 15 15 15 14 14 13 12 11 11 11 11 10 10 10 10 10 10 10 10 10 9 9 9
14 13 12 11 10 9 8 8 8 7 5 5 5 5 6 9 10 13 14 15 16 16 16 16 15 15 14 12 12 12 12 12 12 12 12 12 12 12 12 12 12 12 11
13 14 12 11 10 9 8 8 7 7 6 5 5 5 6 8 9 12 14 14 15 15 16 16 15 15 14 14 14 14 14 14 14 14 14 14 14 14 14 14 14 14 14
13 14 13 12 11 9 9 8 7 7 7 5 5 5 6 7 8 10 13 14 14 15 15 15 15 16 16 15 15 15 14 14 14 14 15 15 15 15 15 15 16 15 16
14 14 14 12 11 10 10 9 8 8 7 6 5 5 6 7 8 10 12 13 13 14 14 15 15 15 16 16 16 15 16 16 15 16 16 16 17 17 17 17 18 18 17
13 13 14 13 11 11 10 10 9 9 7 7 6 6 6 6 7 9 11 12 13 12 13 14 15 16 16 17 17 16 17 17 17 17 18 19 19 19 19 19 19 19 20
13 13 13 13 11 11 10 10 8 7 7 7 7 6 6 6 7 8 11 12 12 13 13 15 16 16 17 18 18 17 18 18 18 19 19 20 20 21 21 21 21 21 21
13 13 13 12 11 10 9 9 8 7 7 6 6 6 7 7 7 8 10 11 13 13 13 15 16 16 17 17 18 19 19 19 19 19 20 21 21 21 22 23 22 22 23
12 13 13 12 11 10 9 8 8 7 6 6 6 6 7 8 8 9 10 11 12 13 14 14 16 17 17 18 18 19 19 20 19 20 21 22 22 22 23 24 24 24 24
13 13 13 13 12 11 10 9 9 8 7 6 6 7 8 8 9 10 10 12 12 13 15 16 16 17 18 18 19 19 19 20 20 21 22 23 24 24 24 25 26 26 26
14 14 14 14 13 12 11 9 9 9 8 8 7 8 8 9 9 10 11 13 14 15 15 16 16 17 18 19 19 20 21 21 22 22 23 24 26 26 26 27 27 28 28
16 16 15 14 14 12 11 11 10 10 10 10 9 10 10 10 10 11 12 13 14 15 16 16 17 17 18 19 20 22 22 23 24 24 25 25 26 26 27 28 28 29 29
17 17 17 15 15 14 12 12 12 12 12 11 11 12 12 12 12 13 13 14 15 16 17 18 18 19 20 20 21 23 24 25 25 26 26 26 26 27 27 27 28 28 29
18 18 18 17 16 15 15 14 15 14 14 14 13 14 14 14 14 15 16 16 17 18 18 19 20 20 20 21 22 24 25 26 26 27 28 27 28 28 27 27 27 28 29
20 20 20 18 17 16 15 15 16 15 15 15 16 16 16 16 16 16 16 17 17 18 18 19 20 21 21 22 22 23 24 24 25 26 27 28 29 30 29 29 29 28 28
22 22 21 20 19 18 17 17 17 18 17 17 17 18 18 18 17 17 17 18 19 19 19 20 20 21 22 22 23 24 25 26 26 27 28 29 29 29 29 29 28 28 29
24 24 23 22 21 20 20 20 20 20 19 18 18 18 18 19 19 18 19 20 20 20 21 21 22 23 24 24 25 25 25 25 26 27 27 27 28 29 29 28 28 29 29
25 25 25 24 23 22 21 22 21 21 20 20 20 19 20 19 19 20 20 21 22 22 23 24 24 24 25 25 26 26 26 26 26 26 27 28 28 29 28 28 29 29 29
28 28 27 26 25 25 24 24 23 23 22 22 22 22 21 21 21 21 22 22 23 24 24 24 25 25 26 26 27 27 27 26 27 27 28 28 28 29 29 29 29 30 31
30 30 30 29 28 28 27 27 27 26 25 25 24 24 23 23 24 24 24 24 25 25 25 25 25 26 26 27 28 28 29 29 29 29 29 28 29 29 30 30 31 32 32
32 33 33 32 31 30 30 29 28 28 28 27 26 25 26 26 26 26 26 26 26 26 27 26 27 27 28 28 28 29 29 29 29 30 29 30 30 30 30 30 31 32 33
35 34 33 33 31 31 30 29 29 29 30 29 28 28 28 28 28 28 28 28 28 28 28 29 29 29 29 29 30 29 29 29 30 30 30 30 30 30 30 31 32 32 32
37 35 34 33 32 31 31 31 30 30 30 30 30 30 30 30 30 30 30 30 30 30 30 30 31 31 31 31 31 30 30 30 30 30 30 30 30 31 31 31 31 31 31

GEFSMW_500_meanwind_138.txt.gz
Wind_Speed
13 13 13 13 11 10 9 9 9 8 6 5 6 8 8 10 11 11 11 12 12 13 12 11 10 9 8 7 7 6 6 6 6 6 6 6 6 7 7 6 6 6 6
13 13 13 13 12 10 10 10 9 9 7 6 5 7 8 9 10 11 12 12 13 14 13 12 11 10 9 8 8 8 8 7 7 7 7 8 8 8 8 8 8 8 8
12 13 13 13 12 11 10 9 9 9 7 7 5 6 7 8 10 11 13 13 13 14 15 13 12 11 11 10 9 9 9 9 9 9 9 9 9 9 10 10 10 9 9
12 12 13 13 13 11 10 9 9 8 7 7 5 5 5 8 10 12 13 14 14 15 15 14 13 12 12 11 11 11 11 11 11 10 11 11 11 11 11 12 11 11 11
11 12 13 13 12 11 11 10 9 9 8 7 6 6 7 8 10 11 12 14 14 15 15 15 14 13 13 12 12 12 12 13 12 12 12 12 13 13 14 14 13 13 13
11 12 13 13 12 12 11 10 10 10 9 7 7 7 7 8 10 10 12 13 14 15 15 15 15 15 14 14 13 13 13 14 14 14 14 14 14 15 16 16 15 15 16
12 12 12 12 13 12 11 11 10 9 8 7 7 7 8 8 10 10 11 12 14 16 16 16 15 15 15 15 14 14 14 15 15 15 15 15 16 16 17 17 17 18 18
11 12 12 12 12 12 11 11 10 9 8 7 7 8 9 9 9 10 10 12 13 15 16 16 15 15 15 15 15 15 16 16 16 16 16 17 17 18 19 19 19 19 20
12 12 12 12 13 12 11 10 10 10 9 8 8 8 8 9 9 10 10 12 13 14 14 14 14 15 15 16 16 16 16 17 17 18 18 18 19 19 20 20 21 21 22
12 11 12 12 12 12 11 10 10 10 10 9 8 7 8 8 9 10 10 11 12 13 14 13 13 14 15 15 16 16 17 18 18 19 20 20 21 21 21 22 22 22 23
11 12 12 12 12 12 11 11 10 10 10 9 8 9 8 8 9 9 10 10 11 12 14 13 13 14 14 15 16 17 17 18 19 19 20 21 22 22 22 23 23 24 24
12 12 12 12 12 12 11 11 10 10 9 9 8 8 8 9 9 9 9 10 11 12 13 13 14 14 15 16 17 18 19 19 19 20 20 22 22 23 23 23 24 25 26
12 12 12 12 12 12 12 11 10 10 9 9 9 8 8 9 9 10 10 10 11 12 14 15 15 15 16 16 18 19 19 19 20 21 21 22 22 23 24 25 26 27 27
11 12 12 12 12 13 12 12 11 10 10 10 10 9 10 10 10 10 11 12 12 13 15 16 16 17 17 18 19 20 20 20 21 21 22 23 24 24 25 26 27 28 28
12 12 13 13 13 13 13 12 12 12 11 10 10 10 10 11 11 12 12 13 14 15 16 16 17 18 19 19 20 20 21 22 23 23 24 25 26 27 28 28 29 29 30
14 14 14 14 14 14 14 14 14 13 12 12 12 12 11 11 12 12 13 14 15 16 16 17 18 19 20 21 21 22 22 23 24 24 25 26 28 29 30 30 30 31 31
16 16 17 16 17 17 16 15 15 14 14 13 13 13 14 14 14 15 15 16 17 17 17 18 19 19 20 21 22 23 23 24 24 25 27 27 28 30 30 30 30 30 30
18 19 19 18 18 19 19 18 17 16 15 15 15 15 16 16 16 17 18 18 18 18 19 19 19 20 21 22 22 23 24 24 25 26 27 28 28 28 29 29 29 29 30
20 20 20 20 20 20 20 19 19 18 17 17 17 17 17 17 18 18 19 19 20 20 20 20 21 21 22 23 23 23 24 24 25 26 27 27 28 28 28 28 28 29 30
23 22 22 23 23 22 22 22 21 21 20 20 19 19 19 18 19 19 20 20 21 22 22 22 23 23 23 24 25 25 25 26 26 27 28 28 29 29 29 29 29 29 29
25 25 25 25 25 25 25 24 24 24 23 22 21 21 21 21 21 21 21 21 22 23 23 23 24 24 24 25 26 26 27 27 28 29 29 30 29 29 29 29 30 30 30
28 28 28 28 27 27 28 27 27 26 26 24 23 23 24 23 23 23 23 23 23 24 24 25 25 25 25 26 27 27 28 28 29 29 30 30 31 31 31 31 31 32 32
30 30 30 30 30 30 30 30 28 29 28 27 26 26 26 26 25 25 24 24 25 25 26 27 27 27 27 28 28 29 28 29 30 30 30 31 31 31 31 31 32 32 32
32 32 32 32 32 33 33 32 31 31 31 30 29 29 29 28 27 27 27 26 27 27 28 28 29 29 29 30 30 31 31 31 31 32 32 32 31 31 31 32 32 32 32
33 33 33 33 33 33 34 35 34 33 33 32 31 31 31 30 30 29 28 28 29 29 30 31 31 31 31 32 33 33 33 33 33 33 33 33 32 32 32 32 33 32 32
34 34 35 34 34 34 34 35 34 33 33 32 31 31 31 31 31 31 31 30 31 32 32 33 34 33 33 34 34 34 34 34 34 34 34 33 33 33 33 33 33 33 33

GEFSMW_500_meanwind_144.txt.gz
Wind_Speed
15 15 16 17 17 17 16 13 11 11 10 9 7 5 5 6 8 9 10 10 10 11 10 10 9 9 8 7 6 6 6 6 6 5 6 5 5 5 6 5 6 5 5
15 15 16 17 17 17 16 14 12 11 11 10 8 6 6 6 7 8 10 11 11 11 11 11 10 9 9 8 7 7 7 7 7 7 6 7 7 7 8 8 8 8 7
15 15 15 16 17 17 16 15 13 12 11 11 10 8 7 7 7 8 9 11 11 11 12 12 11 10 10 9 9 9 9 8 8 8 8 8 9 9 9 8 9 9 9
16 16 15 16 17 17 17 15 14 13 12 11 10 9 8 7 8 9 9 10 11 12 12 12 12 11 11 10 10 10 10 10 9 9 9 9 9 10 9 9 10 10 10
16 16 15 15 16 17 17 16 15 14 13 12 10 9 8 7 7 8 9 9 11 12 13 13 13 12 12 11 11 11 11 10 10 10 11 11 11 11 12 12 11 11 12
16 16 15 15 16 17 16 16 15 14 14 13 11 9 8 8 7 8 9 10 10 11 12 12 13 13 12 12 12 12 12 11 12 12 12 12 12 12 13 13 13 14 14
15 14 13 14 15 16 16 16 15 14 14 13 12 10 10 9 8 9 9 10 10 11 12 12 13 14 13 13 13 13 13 13 13 13 13 13 14 14 14 14 15 16 16
14 12 13 14 16 16 17 16 16 15 14 13 12 11 10 10 9 10 9 9 10 11 11 12 13 14 15 15 14 14 14 14 14 15 15 15 15 16 15 16 16 17 17
14 12 13 14 15 16 17 16 16 16 15 13 12 12 11 10 10 10 9 9 9 10 11 12 13 14 14 15 15 15 15 15 15 15 15 16 16 16 16 17 18 18 19
13 13 14 15 16 16 16 16 16 16 15 14 13 12 12 11 10 10 9 8 8 9 11 12 13 13 13 14 14 15 15 16 16 16 16 16 16 17 18 18 19 19 19
15 14 14 15 16 16 16 17 16 16 15 14 13 13 12 11 10 10 9 9 8 8 9 11 13 13 13 14 13 14 14 15 16 17 17 17 18 18 19 19 20 20 20
15 15 14 15 16 16 16 17 17 16 15 15 14 14 13 11 10 10 10 9 9 9 10 11 12 13 14 14 15 15 15 16 17 18 18 19 19 19 20 20 20 21 21
16 16 15 15 16 16 17 17 17 16 16 15 15 14 14 12 11 11 10 10 11 11 11 12 13 13 14 15 16 16 16 17 18 19 19 20 20 20 21 21 22 22 23
16 17 17 17 16 16 17 17 17 17 16 16 16 15 14 13 12 12 11 12 12 12 13 13 14 15 16 17 17 17 18 19 19 20 21 21 21 21 22 23 23 24 24
18 18 17 17 17 17 17 18 18 18 17 17 17 16 15 14 14 14 13 14 14 14 14 14 15 16 17 17 18 19 20 20 21 21 21 21 22 23 24 24 24 24 25
20 19 17 17 17 18 18 18 18 18 18 18 18 18 17 16 16 16 15 16 15 15 15 15 17 18 18 18 20 20 20 20 21 22 22 23 23 24 25 25 25 26 27
21 20 19 18 19 19 19 19 19 19 19 19 19 19 18 18 18 17 17 17 17 17 17 18 18 18 18 19 20 20 20 21 21 22 23 24 25 25 26 26 27 27 27
23 21 21 21 21 21 21 21 21 21 21 21 20 20 20 20 19 19 19 19 19 19 19 19 19 20 20 20 21 21 22 22 23 24 24 25 26 27 27 27 28 28 28
25 24 23 23 23 23 23 23 22 22 22 22 22 22 22 22 22 21 21 20 20 20 20 20 21 21 22 22 23 23 24 24 24 25 26 27 27 28 28 28 29 29 30
26 26 26 26 26 25 25 25 24 24 24 24 24 24 24 24 24 23 22 22 21 21 21 22 22 23 24 24 25 25 25 26 26 26 27 27 28 28 29 30 30 31 31
28 29 28 28 28 28 27 27 26 26 27 26 26 26 26 26 26 25 25 24 23 23 24 24 24 24 24 25 26 26 27 27 27 28 28 29 29 29 30 31 31 32 32
31 31 31 31 31 30 30 29 29 29 29 29 29 29 29 28 28 27 26 26 26 26 26 26 26 25 25 26 26 27 27 28 29 29 29 30 31 31 32 33 33 33 33
34 34 33 33 33 32 32 31 31 31 31 31 31 31 31 31 30 29 29 29 29 28 28 28 28 28 27 28 28 29 29 30 31 31 31 32 32 32 32 33 33 33 34
36 36 35 34 34 33 33 33 33 33 33 33 33 32 32 32 31 31 31 31 31 31 30 30 31 31 30 30 31 31 32 32 32 33 33 33 33 33 32 33 33 34 34
38 37 37 36 35 35 34 34 34 34 34 34 33 33 33 33 33 33 33 33 33 33 33 33 34 33 33 33 33 34 34 34 34 34 34 34 34 34 34 35 35 35 35
39 38 38 37 37 36 36 36 36 36 36 36 35 34 34 34 34 34 34 34 34 35 35 35 35 35 35 35 36 36 36 36 36 36 36 36 36 36 36 36 37 36 36

GEFSMW_500_meanwind_150.txt.gz
Wind_Speed
15 15 15 14 14 14 13 12 11 10 10 9 6 4 2 2 4 6 7 8 8 9 9 9 9 8 8 7 7 7 7 6 6 7 7 7 7 7 7 7 7 8 7
16 15 15 15 14 14 13 13 12 11 10 9 7 5 3 3 3 4 6 7 8 8 10 10 10 10 9 8 8 8 8 8 8 8 8 9 8 8 8 8 9 9 9
16 15 15 15 14 13 13 13 12 11 10 9 8 7 5 4 4 5 6 7 8 9 10 10 11 11 11 9 9 9 9 9 9 9 9 9 10 10 10 10 10 10 10
17 15 14 14 14 13 13 13 13 12 11 10 8 7 6 5 5 5 6 8 9 10 10 11 11 11 11 10 10 10 10 10 10 10 10 10 10 10 11 11 11 11 11
17 16 15 14 13 13 13 13 13 13 12 11 10 8 7 5 6 6 7 8 10 10 11 11 12 12 11 11 11 11 11 11 11 10 11 11 11 11 11 11 12 12 13
17 16 14 13 13 13 13 14 13 12 12 11 10 9 8 6 5 5 6 7 8 9 10 11 12 12 12 12 12 12 12 12 12 11 11 12 13 13 13 13 13 13 14
16 14 13 13 12 12 12 13 13 13 12 11 11 10 8 7 6 5 5 7 8 9 11 12 12 13 13 13 13 13 14 13 13 13 13 13 14 14 15 15 14 15 14
14 13 14 13 12 12 12 13 13 13 13 12 12 10 9 7 6 6 6 7 7 8 10 12 13 13 14 14 14 14 14 14 14 14 14 14 14 14 15 15 15 15 16
15 14 13 14 13 12 12 13 13 13 13 13 12 11 10 9 7 6 6 7 8 8 9 11 13 14 14 14 14 15 15 15 15 15 15 14 14 15 15 16 16 16 16
15 13 13 13 13 12 12 12 13 13 13 13 12 11 10 9 8 7 6 6 7 7 9 10 11 13 14 14 15 15 16 15 15 15 15 15 16 16 16 17 17 17 18
15 14 13 13 12 12 12 12 13 13 13 13 12 12 11 9 9 9 7 6 7 7 8 9 11 12 13 14 14 15 15 15 16 17 17 17 17 17 18 18 18 19 19
16 15 13 13 13 13 12 12 13 13 13 13 13 12 11 10 9 9 8 7 8 8 9 9 11 12 13 14 15 15 16 16 17 17 18 19 19 19 19 20 20 20 20
16 15 14 14 14 13 13 12 13 13 14 14 14 13 12 11 11 10 9 9 9 10 10 11 11 12 13 13 15 17 18 18 18 18 18 19 19 20 20 21 21 21 22
16 16 15 14 14 14 13 13 13 14 14 15 14 14 14 13 13 12 11 10 11 12 12 12 13 13 14 15 16 17 17 18 19 19 19 20 20 20 21 21 22 22 22
18 16 16 15 14 14 15 15 14 15 15 15 15 15 15 14 14 14 13 13 13 13 13 13 13 14 15 15 16 17 18 18 19 20 21 21 21 21 21 21 22 23 23
19 18 17 16 16 16 16 16 16 16 17 17 16 16 15 15 15 15 15 14 13 14 14 15 14 15 15 16 17 18 17 18 19 21 22 22 22 22 22 22 23 23 24
22 19 18 18 18 18 18 18 18 18 18 18 18 17 17 17 17 16 16 16 15 15 15 15 15 15 16 17 18 18 19 19 19 20 21 22 22 22 23 23 24 24 25
23 22 20 20 20 20 20 20 20 20 19 19 19 19 19 18 18 18 18 17 17 17 17 17 17 17 17 18 18 19 20 20 20 20 21 22 22 23 24 25 25 25 26
27 25 23 22 22 22 23 22 22 21 21 21 22 21 21 21 20 20 20 20 19 19 19 18 18 19 19 19 19 19 20 21 22 22 23 23 24 24 25 26 26 27 28
29 28 26 25 24 25 25 25 24 24 23 24 24 24 24 24 23 22 22 21 21 21 21 21 21 20 20 20 21 21 22 22 23 23 24 24 24 25 27 28 28 29 29
31 30 30 28 27 27 27 27 27 27 26 26 26 26 26 25 24 24 24 24 24 23 24 24 24 23 23 23 23 23 24 24 25 25 25 26 26 27 28 28 29 30 30
34 33 32 30 29 29 30 29 29 29 29 29 29 28 28 27 27 26 26 26 26 26 26 26 26 26 25 25 25 26 26 26 26 26 27 27 28 28 28 29 30 30 31
36 36 34 33 32 32 32 31 31 32 32 32 31 30 30 30 30 29 29 29 29 28 28 28 28 28 28 28 28 28 29 29 29 29 29 29 29 30 30 31 32 32 32
39 39 37 36 35 35 35 34 34 34 34 33 33 32 32 32 32 32 32 32 32 31 30 30 29 29 29 29 30 30 31 31 31 31 32 32 32 32 32 33 33 33 33
42 41 40 39 39 39 39 37 36 36 35 35 34 34 34 34 34 34 34 34 34 33 32 31 31 31 31 31 31 32 32 32 32 33 33 33 34 34 34 34 34 35 34
44 44 43 42 42 40 40 39 38 38 37 36 36 36 35 36 36 35 35 35 35 34 33 32 32 33 33 33 33 33 33 33 33 34 35 35 35 35 35 35 36 36 35

GEFSMW_500_meanwind_156.txt.gz
Wind_Speed
18 16 16 15 14 13 12 12 11 10 8 8 7 6 5 3 3 4 5 7 8 8 8 8 9 9 8 8 8 8 7 7 8 8 8 8 8 8 8 9 9 9 9
18 17 16 15 14 13 12 12 12 10 9 8 8 6 5 3 3 4 5 6 8 9 9 9 10 10 10 10 9 9 9 9 9 9 9 9 9 9 9 10 10 10 11
16 16 15 15 14 14 13 12 12 11 10 9 8 7 5 5 5 6 7 8 9 10 10 9 10 11 11 11 11 11 10 10 10 9 10 10 10 11 10 11 12 12 12
14 14 15 15 14 14 14 14 13 12 11 11 10 8 7 6 6 6 7 9 9 10 10 11 11 11 12 12 12 12 11 11 11 11 11 11 11 12 12 12 12 13 13
14 14 14 13 13 14 14 14 14 13 12 11 10 10 9 7 6 6 7 8 9 10 11 12 13 13 13 14 13 13 12 12 12 12 12 12 13 13 14 14 13 14 14
14 13 13 13 14 14 14 14 14 13 12 11 11 11 10 9 7 6 7 7 8 10 12 12 12 14 15 15 14 14 14 14 14 14 14 13 14 14 14 15 15 15 16
13 14 13 13 13 14 14 13 13 13 12 11 11 12 12 12 9 7 7 7 8 9 10 11 12 13 14 15 15 16 16 16 16 15 15 16 16 16 16 16 17 17 17
14 14 13 12 12 13 13 14 13 13 13 12 12 11 11 11 11 10 8 7 8 9 10 11 13 13 14 14 15 16 16 16 16 16 16 17 17 17 18 18 18 18 18
13 14 14 12 12 13 14 14 13 12 12 13 12 12 11 12 11 11 9 8 8 8 9 10 11 13 14 15 16 17 17 17 17 17 17 18 18 19 19 19 19 19 19
13 14 14 13 13 14 13 13 13 13 12 12 13 13 12 12 12 11 10 8 8 9 10 11 11 12 13 14 15 17 17 18 19 19 19 18 19 19 20 20 21 21 21
13 14 14 13 14 14 13 13 13 13 13 13 13 13 13 13 12 11 10 10 9 9 10 10 11 12 12 13 14 15 16 17 18 19 19 20 20 21 21 21 22 22 22
14 14 14 13 14 14 14 13 13 13 13 14 14 14 14 13 13 12 11 11 11 11 11 11 12 12 13 14 15 16 17 18 19 20 20 21 22 22 22 22 23 24 24
16 15 14 14 14 14 14 13 13 13 13 14 14 14 15 15 14 13 13 13 12 12 11 11 11 12 13 14 16 16 17 18 19 20 21 22 22 23 23 24 24 25 25
15 15 15 15 15 15 15 14 14 14 15 15 16 16 16 16 16 16 15 14 14 14 13 13 12 13 14 15 16 16 17 19 19 20 21 21 22 23 23 24 25 26 26
16 16 17 16 15 16 15 15 15 15 16 16 17 17 17 17 18 17 17 16 16 16 16 16 15 16 16 16 17 17 18 19 20 20 21 22 22 23 23 24 24 26 26
18 18 18 18 17 16 16 16 16 16 16 17 17 18 18 18 18 18 18 19 18 17 17 17 18 18 18 18 18 19 19 20 21 22 22 23 24 24 25 25 26 27 27
19 20 20 19 19 18 17 17 18 17 17 18 18 19 19 19 20 20 20 20 20 19 18 19 19 19 19 19 20 20 21 22 22 22 22 23 23 25 26 26 27 27 28
21 21 20 21 21 20 19 19 20 20 20 21 21 21 21 21 21 21 21 21 20 19 19 19 19 19 19 19 20 21 21 22 22 23 24 24 24 25 26 27 28 29 29
23 23 23 23 22 22 22 22 22 22 23 23 23 23 23 24 23 22 23 22 21 21 21 21 20 20 20 20 21 22 22 23 24 25 26 26 27 27 28 28 28 29 30
27 27 26 26 25 24 24 25 26 25 25 25 25 25 25 25 25 25 25 25 24 23 23 23 23 22 22 23 23 23 24 25 26 26 27 27 28 28 29 29 29 30 31
28 28 28 29 28 27 28 29 28 28 28 27 28 28 28 28 27 27 27 27 26 25 25 25 25 25 25 25 25 25 25 26 27 27 28 29 29 29 30 31 31 31 32
31 31 30 31 32 31 31 32 32 31 31 30 31 30 31 31 31 30 29 28 28 27 27 27 27 27 27 27 27 27 27 27 28 28 28 29 30 30 31 32 33 33 33
34 34 34 34 35 35 35 36 35 35 35 34 34 34 34 34 34 33 32 29 28 29 29 29 29 29 29 30 30 30 30 30 30 30 31 31 32 32 33 33 34 34 34
37 37 37 37 37 38 38 38 39 40 38 37 37 37 36 35 35 35 33 31 30 31 31 31 31 31 32 32 32 32 32 32 32 32 32 33 33 33 34 34 35 35 36
39 40 40 40 40 41 41 42 42 42 41 40 39 38 37 36 35 34 33 32 32 33 33 32 33 33 34 34 35 35 34 34 34 34 34 34 34 35 36 36 37 37 37
41 41 41 41 41 42 42 43 43 43 43 41 40 39 38 37 36 34 34 34 34 35 35 35 36 36 36 36 35 36 36 35 35 35 36 36 36 36 37 37 38 38 38

GEFSMW_500_meanwind_162.txt.gz
Wind_Speed
14 13 12 12 12 12 12 13 12 11 10 8 7 7 5 3 3 4 5 6 7 8 8 9 8 8 8 8 8 9 9 8 8 7 8 9 9 9 10 10 10 10 10
13 13 12 12 12 12 12 13 13 12 11 9 8 8 7 5 4 4 5 7 8 8 9 9 9 10 9 9 10 10 10 10 9 9 10 10 10 10 11 11 11 11 11
12 12 12 12 11 12 12 12 12 12 11 10 9 8 7 7 5 4 4 6 8 8 9 9 10 10 10 10 11 11 11 12 11 11 11 11 12 12 11 11 12 12 12
11 12 12 12 11 12 12 12 12 12 11 9 10 9 8 8 6 4 4 5 6 7 8 9 10 11 11 11 12 12 13 13 13 13 12 12 12 13 13 13 13 13 13
11 11 12 12 12 11 12 12 12 12 11 10 10 10 9 9 7 5 5 4 5 6 7 9 10 11 11 12 12 13 14 14 14 14 14 14 14 14 14 14 15 15 14
10 11 11 12 12 11 11 12 13 13 11 10 10 9 10 9 8 7 6 6 6 7 8 9 10 11 12 12 13 14 15 15 16 16 16 16 16 16 16 16 16 16 16
9 10 11 11 11 10 11 12 12 13 12 10 10 9 9 9 9 9 8 7 7 7 7 9 10 11 13 13 14 15 16 16 17 17 17 17 17 17 17 17 17 17 18
9 10 10 10 10 11 11 11 11 12 12 11 10 10 9 10 10 10 9 8 7 7 7 8 9 11 12 12 13 14 15 16 17 18 18 18 18 19 19 19 19 19 20
10 9 10 10 10 11 11 11 11 11 12 12 11 11 9 10 10 10 10 9 9 9 9 9 10 11 11 12 14 14 15 17 17 18 19 19 20 20 20 20 20 20 21
10 10 10 11 10 10 11 11 11 12 12 12 11 11 10 10 10 10 10 10 11 10 10 10 10 11 12 12 13 14 15 16 17 17 18 19 20 20 21 21 21 22 22
11 11 11 11 11 10 10 11 11 12 12 12 12 12 11 10 10 11 11 11 11 11 11 11 12 12 13 13 14 14 14 15 16 17 18 19 19 20 21 21 22 22 22
12 12 11 11 11 11 11 11 11 12 12 12 12 12 12 12 12 12 12 12 12 12 12 12 13 14 14 15 15 15 16 17 17 18 18 19 20 21 21 22 23 23 24
13 13 12 11 12 12 12 12 12 12 12 12 13 13 13 13 14 14 14 14 13 13 14 14 14 14 15 15 16 16 17 17 18 19 19 20 21 22 22 22 23 24 25
15 14 13 13 13 13 13 13 13 13 13 13 14 14 14 15 15 15 16 15 15 15 15 16 15 16 16 17 17 18 17 18 19 20 21 21 21 22 23 23 23 24 25
16 16 15 15 15 15 15 14 14 14 15 15 15 16 16 16 16 17 17 17 17 17 17 17 17 17 17 18 18 18 19 19 20 21 22 22 22 23 23 24 25 25 26
18 18 17 17 17 16 16 15 15 16 16 17 18 18 18 18 18 19 19 19 19 19 18 18 19 18 19 19 18 19 20 21 21 22 23 23 24 24 24 25 26 27 27
20 20 20 19 18 19 18 18 18 18 18 19 19 19 20 20 20 20 20 20 20 20 20 20 20 20 20 20 20 20 21 21 22 24 24 24 24 24 25 26 27 27 27
22 22 22 21 21 21 21 20 20 20 20 21 21 22 22 22 22 22 23 23 22 22 22 21 21 22 22 21 21 21 21 22 22 23 23 24 24 25 26 26 26 27 27
24 24 24 24 24 24 24 23 23 23 23 23 24 24 25 25 25 25 25 25 25 25 24 24 23 23 23 23 23 23 23 23 23 23 24 24 25 25 26 26 26 26 27
26 26 26 26 27 27 27 26 26 26 26 26 27 27 28 27 27 28 27 27 27 27 27 26 26 25 24 25 26 25 25 24 24 24 24 25 25 26 26 27 27 28 28
28 28 28 28 29 30 30 30 29 30 30 30 30 30 29 29 30 30 30 30 30 30 30 29 28 27 26 26 27 27 26 26 25 26 27 27 28 28 28 28 29 29 30
30 30 30 30 31 32 33 33 33 33 33 33 34 34 33 33 33 34 33 33 32 31 31 30 29 29 28 28 27 28 28 28 28 28 29 29 30 30 30 30 31 31 32
32 32 32 32 33 34 35 35 34 36 36 36 37 37 37 37 37 36 35 34 33 33 32 31 30 30 30 29 30 29 29 30 30 30 30 31 31 31 32 32 32 33 33
34 34 34 35 36 36 37 37 38 39 39 40 40 39 38 39 39 37 35 34 34 34 33 33 32 31 31 31 31 32 32 32 32 32 32 32 33 33 34 34 34 34 34
36 36 36 37 37 38 39 40 40 41 41 41 41 41 41 40 40 39 37 36 35 35 35 34 33 32 32 33 33 34 33 33 34 34 34 34 35 35 35 35 35 35 35
38 39 39 39 39 40 41 41 41 42 42 42 42 42 41 41 40 39 39 38 37 36 35 34 33 33 32 33 34 34 34 35 35 36 36 36 36 35 35 36 36 35 35

GEFSMW_500_meanwind_168.txt.gz
Wind_Speed
16 16 15 15 15 15 16 16 15 15 15 14 12 10 8 7 6 4 4 4 5 6 6 7 8 8 9 9 8 9 9 8 8 8 8 8 8 9 9 9 9 9 10
15 15 15 15 15 15 16 16 16 16 15 14 13 11 10 8 7 6 5 5 5 5 6 8 9 9 10 10 10 10 10 10 10 10 10 10 10 10 10 11 10 11 11
14 15 15 15 15 15 16 16 16 16 15 14 12 12 12 10 8 8 7 5 5 5 6 7 8 9 10 10 10 11 11 11 11 12 12 12 12 12 12 12 12 12 12
13 14 15 15 15 15 16 16 16 16 16 15 13 13 12 11 10 9 7 6 6 6 6 6 7 8 9 10 10 10 11 12 12 12 12 12 13 13 13 13 13 13 14
13 14 15 15 15 15 15 16 16 16 16 16 14 13 13 12 11 10 9 8 7 6 6 6 7 8 8 9 10 11 11 12 12 13 13 13 14 14 14 14 14 14 15
12 13 13 14 14 15 15 16 16 17 16 16 15 14 13 13 12 11 9 9 9 8 7 8 8 8 9 10 11 11 11 12 13 13 14 14 14 15 15 15 15 15 16
12 12 12 13 14 14 15 16 16 17 16 16 16 14 13 13 13 12 10 9 9 10 9 8 9 10 10 11 12 13 12 12 13 15 15 15 16 16 16 16 16 16 16
11 12 12 13 14 14 15 15 16 16 17 16 16 15 14 13 13 12 11 11 10 10 10 10 10 10 10 11 11 12 12 13 14 14 15 16 16 16 17 17 17 18 18
12 12 12 12 13 14 15 15 16 16 16 16 15 15 14 13 13 12 12 12 12 11 11 11 11 11 11 11 11 11 12 13 13 14 15 16 16 17 17 18 19 19 19
12 12 12 12 13 14 14 15 16 16 16 16 15 15 15 14 14 13 13 13 13 12 13 12 12 12 12 12 12 12 13 13 14 14 14 15 16 16 17 18 19 20 20
13 13 12 12 12 13 14 15 15 15 15 15 15 15 16 16 15 15 15 15 14 14 14 14 14 14 15 14 14 14 14 15 15 16 16 16 16 17 18 19 19 19 20
15 15 15 12 14 14 14 15 16 16 16 15 16 16 16 16 16 17 17 16 16 16 15 15 15 15 15 15 15 16 16 16 16 17 17 17 17 18 18 19 19 20 21
16 17 16 15 15 16 16 16 16 16 16 16 16 17 17 17 17 18 19 19 19 18 17 17 17 17 16 16 16 16 17 18 18 17 18 18 18 19 19 20 21 22 22
18 19 18 17 17 17 17 17 17 17 17 17 18 17 17 18 18 19 19 20 20 19 19 19 18 18 18 18 18 17 18 18 19 19 19 19 20 21 21 22 22 23 23
21 20 20 20 18 18 18 18 19 19 19 18 18 18 19 19 19 20 21 21 21 20 20 20 20 20 19 19 20 20 19 20 20 21 21 21 22 23 23 23 24 25 25
23 23 22 22 21 20 20 20 20 20 21 20 19 19 20 20 21 22 23 23 24 23 22 22 23 23 22 22 22 22 22 21 22 22 22 22 23 23 23 24 24 25 26
25 25 24 24 23 23 22 22 22 22 22 22 21 21 22 22 23 23 24 25 26 26 26 25 25 25 25 24 25 25 24 23 23 23 24 23 23 23 24 24 25 26 27
27 27 26 26 25 25 25 24 24 24 24 24 24 24 25 25 25 25 26 26 27 28 28 28 27 27 27 26 26 26 26 25 24 24 24 24 24 24 25 25 26 27 27
29 28 28 28 27 26 27 27 26 27 27 27 27 27 28 28 28 28 29 29 30 30 30 30 30 29 29 29 29 28 27 27 27 26 26 26 26 26 27 27 27 27 28
30 29 29 30 29 29 29 29 29 29 30 30 30 29 29 30 31 31 31 32 33 32 31 32 32 31 31 30 30 29 28 28 28 28 28 28 28 28 29 29 28 29 29
30 30 31 31 31 32 31 31 31 31 32 32 32 32 32 33 34 34 34 34 34 34 34 33 33 32 32 31 31 31 30 29 29 29 29 29 29 29 29 30 30 30 30
32 32 33 33 33 33 33 32 32 33 33 34 35 34 35 36 36 36 36 37 36 36 36 35 34 33 33 33 33 33 32 31 31 30 30 30 31 30 30 31 31 31 31
35 35 35 35 35 35 35 34 34 35 35 36 36 37 37 38 38 38 38 38 39 38 36 36 35 35 34 34 34 34 34 33 32 32 32 32 32 32 32 32 33 33 33
37 37 37 38 38 37 37 37 36 37 38 38 38 38 39 39 40 40 40 39 39 39 38 37 37 36 35 35 35 34 34 34 32 32 32 32 32 32 33 33 33 34 34
38 38 38 38 38 39 38 38 38 39 39 39 39 39 40 41 41 41 41 40 40 40 40 39 38 38 37 37 36 34 34 33 33 33 33 33 33 33 34 34 34 34 35
40 40 40 40 40 40 40 39 40 40 40 40 40 40 41 41 41 41 41 40 40 40 40 40 39 38 37 36 36 35 34 34 34 35 35 35 35 35 35 35 35 35 36

GEFSMW_500_meanwind_174.txt.gz
Wind_Speed
15 16 16 16 16 16 16 16 16 16 15 14 12 12 11 9 6 5 5 3 1 1 2 4 5 6 6 6 7 7 8 9 10 10 11 11 11 11 11 12 12 12 12
13 14 14 15 15 15 15 15 15 15 14 14 13 12 11 10 8 7 5 4 2 1 2 3 4 5 6 6 8 8 8 9 10 11 12 12 12 12 12 13 13 14 14
11 12 13 14 14 14 14 14 15 16 15 14 14 12 11 10 8 8 6 5 3 2 1 2 3 5 6 7 8 9 10 10 10 11 11 12 13 13 13 13 14 15 15
10 10 11 12 13 13 14 14 14 15 15 14 14 13 11 9 8 7 7 6 4 3 2 3 3 4 5 7 8 9 10 11 11 12 12 12 13 14 14 14 14 15 16
9 9 10 11 12 12 13 13 14 14 14 14 14 13 11 10 9 8 7 7 6 4 4 4 4 5 6 7 8 9 10 11 12 13 13 13 14 14 15 15 15 15 15
8 8 9 10 11 11 12 12 13 14 14 14 14 13 12 11 10 9 8 7 6 5 5 5 5 6 6 7 8 9 10 11 11 12 13 14 15 15 15 15 16 16 16
8 9 9 9 10 10 11 11 12 13 13 13 13 13 13 11 10 9 9 8 7 7 6 6 7 7 8 8 8 9 10 11 12 13 13 14 15 16 17 17 17 17 17
9 9 9 8 9 9 10 10 11 12 13 13 13 13 13 11 10 9 9 9 9 9 8 8 8 8 8 9 9 9 10 10 11 12 13 13 14 15 16 17 17 18 19
10 10 9 8 8 9 9 10 10 11 12 12 12 12 13 12 10 10 10 10 10 10 10 10 10 10 10 10 10 9 10 10 11 12 13 13 14 14 15 16 17 18 20
12 10 9 9 8 8 8 9 9 10 11 11 12 12 12 12 11 10 10 10 10 10 11 11 12 12 12 11 11 11 11 11 12 14 14 15 15 15 16 17 17 18 19
11 10 11 10 8 8 8 9 10 10 10 11 12 12 12 12 12 12 11 11 11 12 12 12 13 13 13 12 12 12 13 14 14 14 15 17 17 17 18 19 19 19 19
14 13 13 12 11 9 9 9 9 10 10 11 12 12 12 12 12 13 13 13 14 14 14 14 14 14 14 14 13 13 14 15 16 16 16 17 18 18 19 20 20 20 20
16 15 15 14 13 12 10 10 11 11 11 12 13 13 13 13 14 14 14 14 15 15 15 15 15 15 15 15 15 15 15 16 17 17 18 18 18 19 20 21 21 22 22
18 16 16 17 18 15 12 11 12 12 13 14 14 15 15 15 16 16 16 15 15 16 16 16 17 17 17 17 17 17 17 17 18 18 18 19 19 20 20 21 22 22 22
20 19 19 19 19 18 15 14 13 14 14 15 16 17 17 18 18 18 17 16 16 17 16 17 18 18 19 19 20 20 19 19 20 20 20 20 20 20 21 21 21 22 22
23 24 24 22 22 20 19 17 16 17 17 17 18 18 19 20 20 20 20 18 18 18 18 18 20 20 21 21 21 21 21 20 21 21 22 22 21 21 21 21 22 22 22
27 27 26 25 24 24 24 21 19 20 20 20 20 20 22 23 23 21 21 22 21 21 21 21 22 22 23 23 22 22 22 22 22 23 23 23 23 23 23 23 23 23 24
30 30 29 29 28 26 25 24 24 24 23 23 24 23 24 25 23 24 24 24 25 24 24 24 25 25 25 25 25 25 25 25 25 24 24 25 25 24 24 24 24 24 24
33 32 32 31 30 28 27 27 26 26 26 26 26 26 26 27 27 27 27 27 26 26 26 27 28 28 28 28 27 27 27 27 27 26 26 25 26 26 26 26 26 25 26
37 36 35 34 32 30 30 29 28 28 28 28 29 28 28 29 29 29 29 29 28 28 28 29 31 30 31 31 29 28 28 28 28 27 27 27 27 27 27 27 27 27 27
38 38 37 36 35 34 34 32 31 30 30 30 31 31 30 30 31 31 31 31 30 30 31 32 33 32 32 32 31 30 30 29 28 28 27 27 27 27 27 27 28 28 28
40 40 39 38 37 36 35 34 32 32 32 33 33 33 32 32 33 32 33 32 32 32 33 34 34 34 34 33 33 32 31 31 30 29 28 27 27 27 27 28 28 29 29
42 41 41 39 38 38 37 36 34 32 33 34 34 33 33 33 34 34 34 34 34 35 35 36 35 35 34 34 33 32 32 32 31 29 28 28 28 28 28 29 29 30 30
43 43 42 41 40 40 38 37 37 34 34 35 36 35 35 35 35 36 35 35 36 36 37 36 36 36 36 35 34 33 33 33 32 31 31 30 29 29 29 29 30 31 31
44 44 43 43 42 41 40 40 38 36 36 36 37 36 36 36 37 37 37 37 37 38 37 37 37 37 36 36 35 35 34 34 33 33 33 32 31 31 31 31 32 32 33
46 45 44 43 42 41 40 39 39 39 38 38 38 38 38 38 38 39 39 39 39 39 38 38 38 37 37 37 36 36 35 35 35 34 34 34 34 34 34 33 34 34 33

GEFSMW_500_meanwind_180.txt.gz
Wind_Speed
15 15 14 14 14 14 14 14 14 13 13 12 10 10 8 7 6 5 3 2 2 2 3 5 6 6 6 6 6 7 7 8 9 9 10 11 12 12 12 12 13 14 14
13 13 13 13 14 14 13 13 13 13 13 12 11 10 9 8 7 6 4 4 3 2 2 2 4 6 7 7 7 8 8 9 9 10 11 12 12 12 12 13 14 14 15
11 11 11 12 12 13 13 13 13 12 12 12 12 11 10 9 8 7 6 5 3 2 2 3 3 4 5 7 8 9 9 10 11 11 12 12 12 13 13 14 14 15 16
9 10 10 10 11 12 13 13 13 12 12 12 12 11 10 9 8 8 7 7 5 3 3 3 3 4 4 6 8 9 10 11 12 13 14 14 15 15 15 15 15 16 16
8 8 9 10 10 11 11 12 13 12 12 12 11 11 11 10 9 8 7 6 6 5 5 4 5 5 6 6 7 8 10 12 13 14 15 15 16 16 16 16 17 18 18
7 7 7 9 9 10 10 10 11 12 12 12 11 11 11 10 9 8 8 6 7 6 6 6 6 6 7 7 8 9 10 11 12 13 15 15 15 16 17 17 18 19 20
7 7 7 8 9 9 9 9 10 10 11 11 11 11 10 10 10 9 8 7 7 8 8 8 7 7 8 9 9 10 10 11 12 13 14 15 16 17 17 18 19 20 20
7 7 8 8 8 8 8 9 10 10 10 10 11 11 10 10 9 10 9 9 8 9 9 10 9 9 10 10 10 10 10 11 12 13 14 15 16 17 18 19 20 20 20
9 8 8 8 8 8 8 9 9 9 10 10 11 11 11 10 10 10 10 10 10 10 11 11 11 11 11 12 11 11 11 12 12 13 14 15 17 18 19 20 21 21 21
11 10 9 9 8 8 9 10 10 10 10 10 11 11 11 11 10 10 11 12 11 11 11 12 12 12 12 12 13 12 12 13 14 14 15 17 17 18 19 20 21 22 22
12 12 11 9 8 9 9 10 11 11 10 10 11 11 11 11 12 12 11 12 12 11 12 12 13 13 12 13 14 14 14 15 15 16 18 18 18 19 19 20 21 23 23
14 13 13 11 11 11 11 12 13 13 12 11 11 13 13 13 14 14 13 13 13 12 13 13 13 13 13 13 15 15 16 16 16 17 18 19 19 20 21 21 21 22 23
16 15 14 14 14 13 14 15 15 14 15 13 13 14 15 15 15 16 16 16 16 14 13 14 14 13 14 15 16 16 17 17 17 18 18 19 20 20 21 22 22 23 24
20 19 17 16 16 15 17 18 18 18 17 14 14 15 16 17 17 18 18 18 17 16 15 15 15 15 15 17 17 17 18 18 18 19 20 20 21 21 22 22 23 24 24
21 21 20 18 17 17 18 20 20 20 18 16 16 17 18 19 19 20 20 20 20 18 16 16 16 17 17 18 19 19 19 20 20 21 22 22 22 21 22 22 23 24 24
23 22 21 21 20 20 20 21 21 21 20 19 18 18 19 21 21 22 22 21 20 19 18 18 18 18 19 20 21 22 22 22 23 24 24 24 23 23 23 23 23 24 24
27 25 25 24 23 23 22 22 22 22 23 22 21 20 21 22 23 23 22 22 21 21 20 20 20 20 21 22 23 24 24 24 25 25 25 25 25 25 25 25 25 25 25
30 29 28 27 27 27 26 25 25 25 25 25 25 24 24 25 25 25 24 24 24 23 23 23 22 23 23 24 25 25 26 26 26 27 27 27 27 27 27 26 26 27 27
32 31 31 30 29 30 30 29 29 28 28 28 28 28 28 27 27 26 26 26 27 26 25 25 25 25 25 26 27 27 27 27 27 28 28 28 28 28 27 26 27 27 27
36 35 34 33 33 32 32 32 31 31 31 30 30 31 30 29 28 28 28 29 29 28 27 27 27 27 28 28 29 29 28 28 29 29 30 29 29 29 28 27 27 28 28
38 37 36 36 36 36 36 35 34 33 33 34 35 33 32 31 30 30 29 30 30 30 30 29 29 30 30 31 31 30 30 30 30 30 31 31 30 30 30 29 29 29 29
39 38 39 39 39 39 37 36 36 36 37 38 37 34 34 34 33 31 31 32 32 31 31 32 31 31 32 32 32 31 31 32 32 32 31 31 31 31 31 30 30 31 31
40 40 41 41 42 41 39 37 37 38 39 40 39 39 37 35 34 33 33 33 34 33 34 34 33 33 34 34 33 33 33 33 33 33 33 33 33 33 32 32 32 32 32
43 43 43 44 45 44 42 40 40 39 40 41 41 40 38 36 36 35 34 35 35 35 36 35 34 35 34 34 34 33 33 34 34 34 34 34 34 34 34 34 34 34 34
45 45 46 46 46 44 43 43 43 43 42 41 40 39 39 36 35 36 37 35 35 35 36 35 34 35 35 35 35 35 35 35 35 35 36 36 35 36 36 36 36 35 35
47 46 46 47 47 45 43 43 44 43 42 41 40 38 37 36 36 37 37 37 35 35 35 35 35 36 36 36 36 36 37 37 36 36 37 37 37 37 37 37 37 37 37

GEFSMW_500_meanwind_186.txt.gz
Wind_Speed
13 13 13 13 14 14 14 14 13 13 12 11 11 9 9 8 7 7 5 4 3 2 2 2 3 4 4 5 5 5 7 8 8 8 8 9 10 10 11 11 11 12 12
10 11 12 13 13 13 13 13 13 13 12 12 11 11 10 9 8 7 6 5 4 3 3 3 2 3 4 4 5 6 7 8 8 9 9 10 11 11 12 12 12 12 13
9 9 10 11 11 12 12 12 12 12 12 12 11 11 11 10 9 8 7 6 5 4 4 4 3 3 4 5 6 7 7 8 9 10 10 11 12 12 13 14 14 14 14
8 8 9 9 10 11 11 11 11 11 11 12 11 11 11 11 10 10 9 6 6 6 5 5 5 5 5 6 7 8 8 8 9 11 12 12 13 13 14 15 15 16 16
7 7 8 8 9 9 10 10 10 10 10 11 11 11 11 10 10 10 10 8 7 7 6 6 7 7 6 6 7 8 8 8 9 10 12 13 14 15 15 16 17 18 18
7 7 8 8 8 8 8 9 10 9 9 10 10 10 10 10 9 9 9 9 8 8 8 7 7 7 7 7 8 8 8 9 10 10 11 13 14 15 16 16 17 18 18
8 8 8 8 7 7 8 9 9 9 8 9 10 10 10 10 9 9 9 9 9 8 8 8 9 9 8 8 9 9 9 9 10 11 12 13 14 15 16 17 18 18 19
10 9 9 9 8 8 8 8 9 9 9 9 9 9 9 9 9 9 10 10 10 10 9 9 9 9 9 9 9 10 10 11 11 11 12 13 14 15 16 17 18 19 20
12 11 11 10 10 9 9 9 8 9 9 9 9 9 9 9 10 10 11 11 12 11 11 10 10 10 11 10 10 11 11 12 12 13 13 14 15 16 16 17 18 18 19
14 14 13 12 11 10 10 9 9 9 10 10 10 10 10 10 10 11 12 12 12 12 13 12 11 11 11 11 11 11 11 12 13 13 14 15 15 16 17 18 18 19 19
16 15 14 13 12 11 11 10 10 10 11 11 11 11 10 10 11 12 13 13 13 13 13 13 13 12 11 12 12 12 13 14 14 14 15 16 17 18 18 18 19 20 20
18 18 16 16 15 14 13 13 12 12 12 12 12 12 12 12 13 14 14 14 14 14 14 14 14 13 13 14 14 14 15 15 15 16 17 17 17 18 19 19 20 20 20
20 20 19 18 17 16 16 15 15 15 14 14 14 14 14 14 15 15 15 15 15 15 15 15 15 15 14 14 14 14 15 15 16 16 17 17 18 19 19 20 20 20 21
23 22 22 21 20 19 18 18 18 17 17 16 16 15 16 16 17 17 17 16 16 16 16 17 17 17 16 15 15 15 15 16 17 17 18 18 18 19 19 20 20 20 21
25 25 25 24 23 22 22 21 20 20 20 19 18 18 18 18 18 18 18 18 17 18 18 18 18 18 17 17 17 17 17 18 18 19 19 20 20 20 20 21 21 21 22
28 28 27 27 26 25 24 24 24 23 22 22 21 21 20 21 21 20 20 20 20 20 20 20 20 19 19 19 19 19 20 20 21 21 22 21 21 22 22 22 22 22 23
30 30 30 29 29 28 28 27 27 26 26 25 24 23 23 23 23 23 24 23 22 23 23 22 22 22 22 21 21 21 22 22 22 23 23 22 22 23 23 24 24 24 24
33 33 32 32 31 31 31 31 30 28 28 28 27 27 26 26 26 27 26 26 26 25 24 24 24 24 24 24 24 24 24 24 24 24 25 25 24 24 25 25 25 25 25
35 35 35 35 35 35 34 33 32 31 31 30 30 30 30 29 29 29 29 28 27 26 26 26 26 26 26 27 26 26 26 26 27 27 28 27 27 27 27 27 26 27 27
38 37 37 37 38 38 36 35 34 34 33 32 33 33 33 32 31 30 30 29 29 29 29 28 28 28 28 28 28 27 28 28 28 29 29 29 29 29 29 28 28 28 28
39 39 39 39 40 40 39 38 37 36 36 36 36 36 36 35 34 33 33 32 32 31 31 30 30 29 29 29 29 29 29 30 31 31 31 31 31 30 29 29 29 29 29
40 41 41 42 42 42 41 41 41 40 40 39 39 39 38 38 37 36 35 35 34 34 33 32 31 31 30 29 29 30 31 32 33 33 33 33 32 30 30 30 30 30 30
41 42 42 42 43 43 43 44 43 43 42 42 42 42 41 41 40 39 38 37 35 34 34 33 32 32 31 30 30 31 33 34 35 35 35 34 32 31 31 31 32 32 33
41 42 42 42 42 43 43 43 43 43 43 43 43 43 43 42 41 41 40 39 37 35 34 34 34 34 32 32 32 33 33 34 35 36 35 34 33 33 33 33 33 34 34
42 43 43 43 43 43 43 43 43 43 43 44 45 46 43 41 41 40 40 39 37 36 36 36 35 35 34 34 35 36 35 35 35 36 36 35 35 35 35 35 35 35 35
43 43 44 44 44 44 44 44 45 45 45 45 46 46 45 44 43 44 42 39 37 37 38 38 38 36 35 36 36 37 37 37 37 36 35 35 35 35 36 36 36 36 37

GEFSMW_500_meanwind_192.txt.gz
Wind_Speed
12 12 13 14 14 14 14 14 14 13 13 12 12 11 11 10 10 9 9 8 6 5 4 3 2 2 3 3 3 4 5 6 6 7 7 7 8 8 8 8 8 9 9
10 11 12 12 13 13 14 14 14 14 13 12 12 12 12 11 11 10 10 9 8 6 5 4 4 2 2 3 4 5 5 6 7 8 8 8 9 9 9 9 9 10 10
10 10 10 11 11 12 12 13 13 13 13 13 12 12 12 11 11 11 10 9 8 7 6 5 5 4 3 3 3 4 5 6 7 8 9 9 10 9 9 10 10 10 12
9 9 10 9 10 10 11 11 12 13 12 12 12 12 12 12 12 12 11 9 9 8 7 7 6 6 5 5 5 6 6 7 8 8 9 9 9 9 9 10 11 12 13
9 9 9 9 9 9 10 10 11 12 12 11 11 11 11 11 11 11 11 10 9 10 8 7 6 6 6 6 6 7 7 7 7 8 8 9 9 10 10 11 12 13 14
10 9 9 9 9 9 9 9 10 10 11 11 11 11 11 11 11 11 11 10 10 10 9 9 8 7 7 7 7 8 8 8 8 8 9 10 10 10 10 11 12 14 15
12 10 10 10 10 10 10 9 10 10 10 11 10 10 11 11 11 11 11 11 10 10 11 10 9 8 8 8 9 9 8 9 9 9 9 10 11 11 12 12 13 14 15
15 13 12 11 11 11 11 11 11 10 10 10 10 10 10 11 11 11 11 10 11 11 11 10 10 10 10 10 10 10 10 10 10 10 11 11 11 12 13 13 14 14 16
16 16 14 14 13 12 12 12 11 11 11 10 10 10 10 11 11 11 11 11 12 12 11 11 10 10 11 11 11 10 10 10 11 11 12 12 13 13 14 15 15 16 17
19 18 16 15 15 14 14 13 12 12 12 11 11 11 11 12 12 13 13 13 13 13 13 12 12 11 12 12 12 12 12 12 12 13 14 14 14 14 15 16 17 17 17
20 20 18 17 17 16 15 15 14 14 13 13 13 13 13 13 13 14 14 14 15 15 14 14 13 13 14 14 14 14 14 14 14 14 15 16 16 16 16 16 17 18 18
21 21 20 20 20 19 19 18 17 16 15 15 15 15 15 15 15 15 16 16 16 16 16 16 16 16 16 16 16 16 15 15 15 16 16 16 17 18 18 18 19 19 19
22 22 22 21 21 21 21 21 20 18 18 17 17 17 17 17 17 17 18 18 18 18 18 18 17 17 17 17 18 17 17 17 18 18 18 18 18 19 20 20 20 21 21
25 25 24 24 24 24 23 23 23 22 21 20 19 20 20 20 20 20 20 20 20 20 20 20 20 20 19 19 19 19 19 19 20 20 20 20 20 20 20 21 22 22 22
28 28 28 27 26 26 26 26 25 25 24 23 22 22 23 23 23 22 22 22 22 22 23 23 22 21 20 21 21 21 21 21 21 22 21 21 22 22 22 22 23 23 23
32 30 30 30 29 29 28 29 28 28 28 27 26 25 25 25 25 25 25 24 24 25 24 24 23 23 23 23 23 23 23 24 24 24 23 23 23 23 23 23 24 24 24
33 32 32 32 31 31 31 31 31 31 30 29 29 28 28 27 28 27 27 27 26 26 26 25 26 26 26 25 25 25 25 25 25 25 25 25 25 26 26 25 26 26 26
34 34 33 33 33 33 33 32 33 33 32 32 32 31 30 30 30 29 29 29 29 28 27 27 28 27 28 28 27 27 27 27 28 28 28 27 28 28 28 27 27 28 28
36 35 35 35 35 35 35 35 35 35 35 35 34 34 33 33 32 32 31 31 31 30 29 29 29 29 30 30 30 29 30 30 30 31 30 30 30 30 30 30 30 30 30
36 36 37 37 38 38 38 38 38 38 37 37 37 37 37 36 36 35 34 34 34 33 32 31 31 32 32 32 32 32 32 31 32 32 31 32 32 32 32 32 32 32 32
37 38 38 39 40 40 41 42 42 41 40 40 41 40 40 39 39 38 37 38 37 36 35 34 33 34 34 34 34 33 33 33 32 32 32 32 33 34 34 33 32 32 32
39 40 40 41 42 43 44 44 43 43 43 43 43 43 42 42 41 41 40 39 38 38 37 37 36 35 35 35 35 34 33 33 33 33 33 34 35 35 34 34 33 33 34
41 42 42 42 43 44 44 45 45 45 45 45 45 44 44 43 43 42 41 41 40 39 38 38 37 36 35 34 34 34 34 33 34 34 34 35 36 36 35 34 35 35 35
43 43 43 43 43 44 45 45 46 46 47 46 45 45 45 44 44 44 43 42 41 40 39 39 38 37 36 37 36 36 36 35 36 36 37 37 37 37 36 35 35 35 35
42 43 43 44 44 44 44 45 46 46 46 46 45 44 44 44 44 44 43 43 42 42 41 42 41 39 37 37 37 37 38 38 38 39 39 38 38 37 37 37 37 37 37
42 43 44 45 45 44 44 44 45 46 45 45 45 44 43 44 44 45 43 42 42 42 42 42 42 41 40 39 40 40 40 40 40 40 40 39 39 39 38 38 38 38 38

GEFSMW_500_meanwind_198.txt.gz
Wind_Speed
11 11 11 12 12 12 12 13 13 12 12 12 12 11 10 10 9 8 7 7 5 4 2 1 0 2 3 4 4 4 5 5 6 7 7 8 8 9 9 9 9 9 10
9 9 9 10 10 10 10 11 12 12 12 12 12 11 11 10 10 9 7 7 6 5 4 3 2 1 1 3 4 4 5 6 7 7 8 8 9 10 10 10 10 10 11
8 8 8 8 8 8 9 9 10 10 10 10 11 11 11 11 10 10 9 7 6 6 4 3 2 2 1 1 2 3 4 5 6 6 7 8 9 9 10 10 10 11 11
8 8 7 7 7 7 7 7 8 8 8 9 9 9 10 10 9 9 8 7 6 6 5 4 3 2 1 1 1 2 3 4 5 6 7 8 8 9 9 10 11 11 11
9 8 7 7 7 7 7 7 7 7 6 7 7 8 8 9 9 9 8 7 6 5 6 5 4 3 2 2 2 2 3 4 5 6 7 7 8 9 9 10 11 11 12
11 9 8 8 7 7 7 6 6 6 6 6 6 7 7 8 9 9 8 7 6 6 6 6 5 4 3 4 4 5 5 5 5 6 7 7 7 8 9 10 11 12 12
12 11 10 10 9 8 8 8 7 6 6 6 6 6 7 7 8 9 9 8 7 7 7 6 6 5 5 5 6 5 5 5 6 6 7 7 8 9 9 10 12 13 13
12 12 11 10 10 9 9 9 8 7 7 7 6 6 6 7 7 8 9 9 8 8 8 7 7 7 6 7 7 7 7 7 8 8 8 9 10 10 10 11 11 13 13
14 13 13 12 12 12 12 11 10 9 9 9 8 8 8 7 7 8 8 9 9 9 8 8 8 8 8 8 8 9 9 9 10 10 10 10 11 11 11 12 12 13 13
17 15 14 14 13 14 14 13 12 12 11 10 10 10 10 9 9 8 8 9 10 10 9 10 10 10 10 10 10 10 10 10 11 11 11 11 11 11 12 12 13 14 14
18 17 17 16 16 16 16 15 15 14 13 12 12 12 12 11 11 10 10 11 11 11 11 11 11 12 12 12 12 12 12 12 12 12 12 13 13 14 14 14 15 15 16
21 20 19 18 19 18 17 18 17 16 15 15 15 14 14 14 13 12 12 13 13 13 13 12 13 13 13 13 14 14 14 14 14 14 14 14 15 16 16 16 16 16 17
24 23 21 21 22 21 20 19 19 19 19 18 17 16 16 16 15 14 14 15 15 15 14 14 14 14 15 15 15 15 15 15 15 15 15 15 16 17 17 17 18 18 18
25 25 25 24 23 24 23 23 22 23 22 20 20 19 19 18 18 17 17 17 17 17 17 16 16 17 17 18 17 16 17 17 17 17 17 18 19 19 19 19 19 20 20
28 27 28 27 26 26 26 25 24 24 24 22 21 21 20 20 20 20 20 20 20 20 20 20 20 20 19 19 19 19 19 19 19 20 20 21 22 22 21 21 21 21 21
30 29 31 30 28 28 28 27 27 27 26 24 24 24 23 23 23 24 24 24 23 23 23 22 22 22 22 22 22 22 22 22 22 22 23 23 23 23 23 23 23 22 22
32 31 31 31 31 31 30 30 28 28 28 28 27 27 27 27 27 27 27 26 27 26 25 25 25 25 25 24 24 24 25 24 24 25 25 25 26 25 25 26 25 24 24
34 33 33 33 33 32 32 32 33 32 32 31 30 29 29 30 30 29 29 29 29 29 28 28 28 27 27 27 27 27 26 26 26 26 27 27 28 28 29 28 27 26 25
34 34 34 34 34 34 34 34 34 34 34 34 34 33 32 33 33 33 33 33 33 32 31 31 31 30 29 29 29 29 28 28 28 28 28 29 29 29 29 28 27 27 26
36 35 35 36 36 36 37 37 37 37 36 36 36 36 36 36 36 35 36 36 36 36 36 35 34 34 32 31 30 30 29 29 29 30 30 30 30 29 28 27 27 27 27
38 37 37 38 38 38 38 38 39 40 40 39 39 40 39 39 40 39 39 39 39 39 38 37 36 35 33 31 31 30 30 30 31 31 31 31 30 30 28 28 28 27 28
39 39 38 38 39 38 39 39 41 41 41 41 41 41 42 42 43 43 42 41 41 40 40 39 37 35 34 33 33 33 33 32 32 32 32 33 32 30 29 29 29 29 29
39 40 39 39 39 39 40 40 40 41 42 42 42 43 43 43 44 44 44 44 44 43 42 41 38 37 36 36 36 36 36 36 35 33 33 33 33 32 31 31 31 31 31
40 40 41 40 40 40 40 40 40 41 42 43 44 44 44 45 45 46 46 46 46 45 43 42 40 38 38 38 38 38 37 37 37 35 35 35 34 33 33 33 33 33 33
39 41 41 40 40 40 40 40 40 41 42 42 43 44 45 46 46 47 47 46 45 43 43 42 41 40 40 39 39 39 39 38 38 37 37 37 36 34 34 34 34 34 34
38 39 39 40 41 41 42 42 41 42 42 43 44 45 45 46 46 46 46 44 43 42 43 43 42 42 41 41 39 39 37 37 38 38 38 37 35 35 35 35 35 35 35